sat.trackr.live / text

‹ back to catalog

STARLINK-2435

NORAD 47843 · 2021-018BJ

PAYLOAD ACTIVE UNKNOWN

§ Identity

Operator
Country
US
Launch date
2021-03-11
Launch site
AFETR
Launch vehicle
Mass (kg)
RCS (m²)

Purposes: comms

External: N2YO · Heavens-Above · Gunter

§ Orbital elements

Epoch: 2026-05-24T19:27:01.367136Z

Period
94.01 min
Inclination
53.1577°
Eccentricity
0.0001170
Mean motion
15.31726611 rev/d
Perigee alt
469.9 km
Apogee alt
471.5 km
Semi-major
6,848.8 km
B*
1.7327e-4
RAAN
261.2531°
Arg perigee
86.7265°
Mean anomaly
273.3870°
Rev number
28,822

§ Raw data

STARLINK-24351 47843U 21018BJ  26144.81043249  .00005020  00000+0  17327-3 0  99952 47843  53.1577 261.2531 0001170  86.7265 273.3870 15.31726611288224

JSON: /api/v1/satellites/47843 · /tle

For live sub-satellite position, see the globe view (requires WebGL).

§ Visibility from observer

Set your observer location to see the next 7 days of passes ≥ 10°. The values pass through the URL so the page stays shareable.

No JS? Fill the form by hand. The geolocation button needs JavaScript.